Home   Weather   Carlisle   Past weeks

Flag for United Kingdom Past Weather in Carlisle, England, United Kingdom — Yesterday and Last 2 Weeks

Now
38 °F

Chilly.


Feels Like: N/A
Forecast: N/A
Wind: N/A

Location: Carlisle

Current Time: Jan 23, 2017 at 9:17:57 pm

Latest Report: Jan 23, 2017 at 8:00 pm


Visibility: 5 mi

Pressure: 30.25 "Hg

Humidity: 91%

Dew Point: 36 °F

Location of CarlisleLocation

Past Weather in Carlisle — Graph

°F

Carlisle Temperature Yesterday

Maximum temperature yesterday: 39 °F (at 1:00 am)
Minimum temperature yesterday: 35 °F (at 7:00 pm)
Average temperature yesterday: 37 °F

High & Low Weather Summary for the Past Weeks

 TemperatureHumidityPressure
High51 °F (Jan 9, 2:00 am)100% (Jan 15, 4:00 am)30.63 "Hg (Jan 15, 4:00 am)
Low30 °F (Jan 23, 4:00 am)59% (Jan 11, 1:00 pm)29.41 "Hg (Jan 12, 5:00 pm)
Average42 °F88%30.15 "Hg
* Reported Jan 8 7:00 pm — Jan 23 7:00 pm, Carlisle, Weather by CustomWeather, © 2017

Note: Actual official high and low records may vary slightly from our data, if they occured in-between our weather recording intervals... More about our weather records

Advertising

Carlisle Weather History for the Previous 24 Hours

Scroll right to see more
 ConditionsComfort  
Time TempWeatherWind HumidityBarometerVisibility
7:00 pm
Mon, Jan 23
39 °FChilly.N/A86%30.25 "Hg6 mi
6:00 pm41 °FQuite cool.N/A80%30.26 "Hg8 mi
5:00 pm40 °FQuite cool.N/A86%30.25 "Hg4 mi
4:00 pm40 °FChilly.N/A84%30.26 "Hg4 mi
3:00 pm40 °FChilly.N/A82%30.26 "Hg6 mi
2:00 pm39 °FChilly.N/A82%30.28 "Hg5 mi
1:00 pm39 °FChilly.N/A80%30.30 "Hg5 mi
12:00 pm37 °FChilly.N/A87%30.32 "Hg4 mi
11:00 am35 °FChilly.N/A89%30.34 "Hg3 mi
10:00 am33 °FChilly.N/A93%30.33 "Hg2 mi
9:00 am33 °FChilly.N/A95%30.33 "Hg3 mi
8:00 am32 °FChilly.N/A96%30.32 "Hg3 mi
7:00 am31 °FChilly.N/A96%30.31 "Hg2 mi
6:00 am32 °FChilly.N/A96%30.31 "Hg3 mi
5:00 am31 °FChilly.N/A97%30.32 "Hg2 mi
4:00 am30 °FChilly.N/A96%30.32 "Hg2 mi
3:00 am31 °FChilly.N/A94%30.32 "Hg2 mi
2:00 am34 °FChilly.N/A87%30.32 "Hg3 mi
1:00 am37 °FChilly.N/A83%30.32 "Hg5 mi
12:00 am37 °FChilly.N/A83%30.32 "Hg6 mi
11:00 pm
Sun, Jan 22
36 °FChilly.N/A89%30.31 "Hg5 mi
10:00 pm35 °FChilly.N/A89%30.31 "Hg4 mi
9:00 pm36 °FChilly.N/A88%30.30 "Hg4 mi
Weather by CustomWeather, © 2017

See weather overviewHow to use our weather pages